Time,TemperatureF,DewpointF,PressureIn,WindDirection,WindDirectionDegrees,WindSpeedMPH,WindSpeedGustMPH,Humidity,HourlyPrecipIn,Conditions,Clouds,dailyrainin,SoftwareType,DateUTC
2013-05-03 00:02:00,67.0,64.0,29.96,West,264,0.0,3.0,91,0.00,,,0.01,,2013-05-03 05:02:00,
2013-05-03 00:12:00,67.0,64.0,29.96,West,264,0.0,3.0,91,0.00,,,0.01,,2013-05-03 05:12:00,
2013-05-03 00:21:00,67.0,65.0,29.96,ENE,64,0.0,3.0,92,0.00,,,0.01,,2013-05-03 05:21:00,
2013-05-03 00:32:00,63.0,60.0,29.97,SE,138,2.0,9.0,90,0.00,,,0.01,,2013-05-03 05:32:00,
2013-05-03 00:42:00,63.0,60.0,29.97,SE,138,2.0,9.0,90,0.00,,,0.01,,2013-05-03 05:42:00,
2013-05-03 00:52:00,60.0,58.0,29.98,NW,304,1.0,5.0,93,0.01,,,0.01,,2013-05-03 05:52:00,
2013-05-03 01:02:00,59.0,57.0,29.98,North,356,1.0,6.0,94,0.01,,,0.01,,2013-05-03 06:02:00,
2013-05-03 01:11:00,59.0,57.0,29.98,North,356,1.0,6.0,94,0.01,,,0.01,,2013-05-03 06:11:00,
2013-05-03 01:21:00,59.0,57.0,29.98,NNW,347,0.0,5.0,94,0.01,,,0.01,,2013-05-03 06:21:00,
2013-05-03 01:32:00,58.0,56.0,29.98,NNE,29,1.0,6.0,94,0.01,,,0.01,,2013-05-03 06:32:00,
2013-05-03 01:42:00,58.0,56.0,29.98,NNE,29,1.0,6.0,94,0.01,,,0.01,,2013-05-03 06:42:00,
2013-05-03 01:51:00,58.0,56.0,29.98,North,359,0.0,4.0,94,0.00,,,0.01,,2013-05-03 06:51:00,
2013-05-03 02:01:00,57.0,55.0,29.97,WNW,284,1.0,4.0,94,0.00,,,0.01,,2013-05-03 07:01:00,
2013-05-03 02:11:00,57.0,55.0,29.97,WNW,284,1.0,4.0,94,0.00,,,0.01,,2013-05-03 07:11:00,
2013-05-03 02:21:00,57.0,55.0,29.96,NE,40,3.0,11.0,94,0.00,,,0.01,,2013-05-03 07:21:00,
2013-05-03 02:31:00,56.0,54.0,29.96,ESE,121,1.0,7.0,94,0.00,,,0.01,,2013-05-03 07:31:00,
2013-05-03 02:42:00,56.0,54.0,29.96,ESE,121,1.0,7.0,94,0.00,,,0.01,,2013-05-03 07:42:00,
2013-05-03 02:52:00,56.0,54.0,29.96,NNW,342,2.0,8.0,94,0.00,,,0.01,,2013-05-03 07:52:00,
2013-05-03 03:02:00,55.0,53.0,29.95,NW,318,1.0,8.0,94,0.00,,,0.01,,2013-05-03 08:02:00,
2013-05-03 03:11:00,55.0,53.0,29.95,NW,318,1.0,8.0,94,0.00,,,0.01,,2013-05-03 08:11:00,
2013-05-03 03:21:00,55.0,53.0,29.95,NNE,15,1.0,8.0,94,0.00,,,0.01,,2013-05-03 08:21:00,
2013-05-03 03:32:00,55.0,53.0,29.96,North,356,2.0,4.0,94,0.00,,,0.01,,2013-05-03 08:32:00,
2013-05-03 03:42:00,55.0,53.0,29.96,North,356,2.0,4.0,94,0.00,,,0.01,,2013-05-03 08:42:00,
2013-05-03 03:52:00,55.0,53.0,29.96,WSW,240,0.0,3.0,94,0.00,,,0.01,,2013-05-03 08:52:00,
2013-05-03 04:01:00,55.0,53.0,29.96,West,276,0.0,5.0,94,0.00,,,0.01,,2013-05-03 09:01:00,
2013-05-03 04:12:00,55.0,53.0,29.96,West,276,0.0,5.0,94,0.00,,,0.01,,2013-05-03 09:12:00,
2013-05-03 04:21:00,54.0,52.0,29.96,North,355,1.0,3.0,94,0.00,,,0.01,,2013-05-03 09:21:00,
2013-05-03 04:32:00,54.0,52.0,29.96,NW,304,3.0,9.0,94,0.00,,,0.01,,2013-05-03 09:32:00,
2013-05-03 04:42:00,54.0,52.0,29.96,NW,304,3.0,9.0,94,0.00,,,0.01,,2013-05-03 09:42:00,
2013-05-03 04:52:00,54.0,52.0,29.97,East,90,0.0,7.0,93,0.00,,,0.01,,2013-05-03 09:52:00,
2013-05-03 05:02:00,53.0,51.0,29.97,NNE,12,0.0,5.0,93,0.00,,,0.01,,2013-05-03 10:02:00,
2013-05-03 05:12:00,53.0,51.0,29.97,NNE,12,0.0,5.0,93,0.00,,,0.01,,2013-05-03 10:12:00,
2013-05-03 05:22:00,53.0,51.0,29.97,NNE,30,1.0,9.0,93,0.00,,,0.01,,2013-05-03 10:22:00,
2013-05-03 05:32:00,52.0,50.0,29.98,NNW,342,1.0,4.0,93,0.00,,,0.01,,2013-05-03 10:32:00,
2013-05-03 05:42:00,52.0,50.0,29.98,NNW,342,1.0,4.0,93,0.00,,,0.01,,2013-05-03 10:42:00,
2013-05-03 05:52:00,52.0,50.0,29.98,WNW,293,0.0,5.0,94,0.00,,,0.01,,2013-05-03 10:52:00,
2013-05-03 06:02:00,51.0,49.0,29.99,SW,219,0.0,4.0,94,0.00,,,0.01,,2013-05-03 11:02:00,
2013-05-03 06:11:00,51.0,49.0,29.99,SW,219,0.0,4.0,94,0.00,,,0.01,,2013-05-03 11:11:00,
2013-05-03 06:22:00,51.0,50.0,29.99,NNW,329,0.0,4.0,95,0.00,,,0.01,,2013-05-03 11:22:00,
2013-05-03 06:32:00,51.0,50.0,29.99,North,349,1.0,5.0,95,0.00,,,0.01,,2013-05-03 11:32:00,
2013-05-03 06:42:00,51.0,50.0,29.99,North,349,1.0,5.0,95,0.00,,,0.01,,2013-05-03 11:42:00,
2013-05-03 06:51:00,50.0,49.0,30.00,WNW,302,2.0,7.0,95,0.00,,,0.01,,2013-05-03 11:51:00,
2013-05-03 07:01:00,50.0,49.0,30.01,SW,233,1.0,4.0,95,0.00,,,0.01,,2013-05-03 12:01:00,
2013-05-03 07:11:00,50.0,49.0,30.01,SW,233,1.0,4.0,95,0.00,,,0.01,,2013-05-03 12:11:00,
2013-05-03 07:21:00,50.0,49.0,30.01,East,84,0.0,4.0,95,0.00,,,0.01,,2013-05-03 12:21:00,
2013-05-03 07:32:00,49.0,48.0,30.02,NW,315,1.0,5.0,95,0.01,,,0.02,,2013-05-03 12:32:00,
2013-05-03 07:42:00,49.0,48.0,30.02,NW,315,1.0,5.0,95,0.01,,,0.02,,2013-05-03 12:42:00,
2013-05-03 07:51:00,48.0,46.0,30.02,NW,315,3.0,8.0,94,0.01,,,0.02,,2013-05-03 12:51:00,
2013-05-03 08:01:00,48.0,46.0,30.02,NNW,342,2.0,7.0,94,0.01,,,0.02,,2013-05-03 13:01:00,
2013-05-03 08:11:00,48.0,46.0,30.02,NNW,342,2.0,7.0,94,0.01,,,0.02,,2013-05-03 13:11:00,
2013-05-03 08:22:00,49.0,47.0,30.03,NNW,348,3.0,8.0,93,0.01,,,0.02,,2013-05-03 13:22:00,
2013-05-03 08:32:00,49.0,47.0,30.03,WNW,302,1.0,5.0,94,0.00,,,0.02,,2013-05-03 13:32:00,
2013-05-03 08:42:00,49.0,47.0,30.03,WNW,302,1.0,5.0,94,0.00,,,0.02,,2013-05-03 13:42:00,
2013-05-03 08:52:00,49.0,47.0,30.03,NNW,347,2.0,5.0,94,0.00,,,0.02,,2013-05-03 13:52:00,
2013-05-03 09:02:00,49.0,48.0,30.03,NW,325,0.0,7.0,95,0.00,,,0.02,,2013-05-03 14:02:00,
2013-05-03 09:11:00,49.0,48.0,30.03,NW,325,0.0,7.0,95,0.00,,,0.02,,2013-05-03 14:11:00,
2013-05-03 09:22:00,49.0,47.0,30.02,NNW,328,1.0,5.0,94,0.00,,,0.02,,2013-05-03 14:22:00,
2013-05-03 09:32:00,49.0,47.0,30.02,North,352,2.0,8.0,94,0.00,,,0.02,,2013-05-03 14:32:00,
2013-05-03 09:42:00,49.0,47.0,30.02,North,352,2.0,8.0,94,0.00,,,0.02,,2013-05-03 14:42:00,
2013-05-03 09:52:00,50.0,48.0,30.02,North,349,2.0,6.0,93,0.00,,,0.02,,2013-05-03 14:52:00,
2013-05-03 10:01:00,50.0,48.0,30.03,NNE,23,0.0,6.0,92,0.00,,,0.02,,2013-05-03 15:01:00,
2013-05-03 10:11:00,50.0,48.0,30.03,NNE,23,0.0,6.0,92,0.00,,,0.02,,2013-05-03 15:11:00,
2013-05-03 10:22:00,50.0,47.0,30.03,NNW,329,2.0,5.0,91,0.00,,,0.02,,2013-05-03 15:22:00,
2013-05-03 10:32:00,50.0,47.0,30.03,WNW,295,2.0,11.0,90,0.00,,,0.02,,2013-05-03 15:32:00,
2013-05-03 10:43:00,50.0,47.0,30.03,WNW,295,2.0,11.0,90,0.00,,,0.02,,2013-05-03 15:43:00,
2013-05-03 10:53:00,50.0,47.0,30.03,WNW,302,1.0,4.0,89,0.00,,,0.02,,2013-05-03 15:53:00,
2013-05-03 11:03:00,50.0,47.0,30.04,North,6,1.0,5.0,90,0.00,,,0.02,,2013-05-03 16:03:00,
2013-05-03 11:12:00,50.0,47.0,30.04,North,6,1.0,5.0,90,0.00,,,0.02,,2013-05-03 16:12:00,
2013-05-03 11:22:00,50.0,47.0,30.04,NNW,336,2.0,7.0,89,0.00,,,0.02,,2013-05-03 16:22:00,
2013-05-03 11:32:00,50.0,47.0,30.04,NNE,24,3.0,8.0,88,0.00,,,0.02,,2013-05-03 16:32:00,
2013-05-03 11:42:00,50.0,47.0,30.04,NNE,24,3.0,8.0,88,0.00,,,0.02,,2013-05-03 16:42:00,
2013-05-03 11:52:00,51.0,47.0,30.04,NNW,338,2.0,6.0,87,0.00,,,0.02,,2013-05-03 16:52:00,
2013-05-03 12:02:00,51.0,47.0,30.04,NNW,338,2.0,6.0,87,0.00,,,0.02,,2013-05-03 17:02:00,
2013-05-03 12:12:00,51.0,47.0,30.04,NNW,338,2.0,6.0,87,0.00,,,0.02,,2013-05-03 17:12:00,
2013-05-03 12:23:00,50.0,46.0,30.04,SW,215,3.0,10.0,86,0.00,,,0.02,,2013-05-03 17:23:00,
2013-05-03 12:32:00,50.0,46.0,30.03,NNW,334,2.0,9.0,86,0.00,,,0.02,,2013-05-03 17:32:00,
2013-05-03 12:42:00,50.0,46.0,30.03,NNW,334,2.0,9.0,86,0.00,,,0.02,,2013-05-03 17:42:00,
2013-05-03 12:51:00,52.0,47.0,30.03,North,356,4.0,11.0,82,0.00,,,0.02,,2013-05-03 17:51:00,
2013-05-03 13:01:00,52.0,47.0,30.03,WNW,288,2.0,9.0,83,0.00,,,0.02,,2013-05-03 18:01:00,
2013-05-03 13:12:00,52.0,47.0,30.03,WNW,288,2.0,9.0,83,0.00,,,0.02,,2013-05-03 18:12:00,
2013-05-03 13:21:00,54.0,49.0,30.03,NNE,24,3.0,11.0,83,0.00,,,0.02,,2013-05-03 18:21:00,
2013-05-03 13:32:00,53.0,48.0,30.02,NNW,338,2.0,10.0,82,0.00,,,0.02,,2013-05-03 18:32:00,
2013-05-03 13:42:00,53.0,48.0,30.02,NNW,338,2.0,10.0,82,0.00,,,0.02,,2013-05-03 18:42:00,
2013-05-03 13:51:00,55.0,49.0,30.02,NNW,344,4.0,13.0,80,0.00,,,0.02,,2013-05-03 18:51:00,
2013-05-03 14:01:00,55.0,48.0,30.02,North,354,3.0,10.0,77,0.00,,,0.02,,2013-05-03 19:01:00,
2013-05-03 14:11:00,55.0,48.0,30.02,North,354,3.0,10.0,77,0.00,,,0.02,,2013-05-03 19:11:00,
2013-05-03 14:21:00,55.0,48.0,30.02,WNW,297,3.0,8.0,77,0.00,,,0.02,,2013-05-03 19:21:00,
2013-05-03 14:32:00,55.0,48.0,30.02,North,349,4.0,10.0,76,0.00,,,0.02,,2013-05-03 19:32:00,
2013-05-03 14:42:00,55.0,48.0,30.02,North,349,4.0,10.0,76,0.00,,,0.02,,2013-05-03 19:42:00,
2013-05-03 14:52:00,56.0,48.0,30.03,NNW,345,2.0,9.0,74,0.00,,,0.02,,2013-05-03 19:52:00,
2013-05-03 15:02:00,56.0,47.0,30.02,North,349,2.0,9.0,72,0.00,,,0.02,,2013-05-03 20:02:00,
2013-05-03 15:11:00,56.0,47.0,30.02,North,349,2.0,9.0,72,0.00,,,0.02,,2013-05-03 20:11:00,
2013-05-03 15:21:00,56.0,47.0,30.02,NNW,328,3.0,12.0,72,0.00,,,0.02,,2013-05-03 20:21:00,
2013-05-03 15:32:00,57.0,48.0,30.01,North,4,5.0,10.0,71,0.00,,,0.02,,2013-05-03 20:32:00,
2013-05-03 15:42:00,57.0,48.0,30.01,North,4,5.0,10.0,71,0.00,,,0.02,,2013-05-03 20:42:00,
2013-05-03 15:52:00,57.0,48.0,30.00,NNW,328,5.0,10.0,71,0.00,,,0.02,,2013-05-03 20:52:00,
2013-05-03 16:01:00,56.0,46.0,30.00,NW,314,4.0,10.0,70,0.00,,,0.02,,2013-05-03 21:01:00,
2013-05-03 16:11:00,56.0,46.0,30.00,NW,314,4.0,10.0,70,0.00,,,0.02,,2013-05-03 21:11:00,
2013-05-03 16:21:00,56.0,47.0,30.00,NE,51,3.0,12.0,71,0.00,,,0.02,,2013-05-03 21:21:00,
2013-05-03 16:33:00,57.0,48.0,29.99,NNW,334,4.0,11.0,71,0.00,,,0.02,,2013-05-03 21:33:00,
2013-05-03 16:42:00,57.0,48.0,29.99,NNW,334,4.0,11.0,71,0.00,,,0.02,,2013-05-03 21:42:00,
2013-05-03 16:52:00,57.0,46.0,29.99,North,354,3.0,11.0,67,0.00,,,0.02,,2013-05-03 21:52:00,
2013-05-03 17:02:00,57.0,47.0,29.99,NNW,340,3.0,10.0,68,0.00,,,0.02,,2013-05-03 22:02:00,
2013-05-03 17:12:00,57.0,47.0,29.99,NNW,340,3.0,10.0,68,0.00,,,0.02,,2013-05-03 22:12:00,
2013-05-03 17:22:00,57.0,47.0,29.99,NW,308,3.0,9.0,68,0.00,,,0.02,,2013-05-03 22:22:00,
2013-05-03 17:32:00,57.0,47.0,29.99,NE,44,2.0,13.0,69,0.00,,,0.02,,2013-05-03 22:32:00,
2013-05-03 17:42:00,57.0,47.0,29.99,NE,44,2.0,13.0,69,0.00,,,0.02,,2013-05-03 22:42:00,
2013-05-03 17:52:00,58.0,47.0,29.98,NW,309,2.0,12.0,68,0.00,,,0.02,,2013-05-03 22:52:00,
2013-05-03 18:02:00,57.0,46.0,29.98,NNW,338,3.0,7.0,67,0.00,,,0.02,,2013-05-03 23:02:00,
2013-05-03 18:11:00,57.0,46.0,29.98,NNW,338,3.0,7.0,67,0.00,,,0.02,,2013-05-03 23:11:00,
2013-05-03 18:21:00,57.0,46.0,29.98,NNW,346,1.0,11.0,67,0.00,,,0.02,,2013-05-03 23:21:00,
2013-05-03 18:31:00,58.0,47.0,29.98,North,5,2.0,7.0,66,0.00,,,0.02,,2013-05-03 23:31:00,
2013-05-03 18:41:00,58.0,47.0,29.98,North,5,2.0,7.0,66,0.00,,,0.02,,2013-05-03 23:41:00,
2013-05-03 18:52:00,58.0,47.0,29.99,North,9,1.0,6.0,66,0.00,,,0.02,,2013-05-03 23:52:00,
2013-05-03 19:01:00,58.0,45.0,29.99,NNE,25,3.0,11.0,63,0.00,,,0.02,,2013-05-04 00:01:00,
2013-05-03 19:11:00,58.0,45.0,29.99,NNE,25,3.0,11.0,63,0.00,,,0.02,,2013-05-04 00:11:00,
2013-05-03 19:23:00,58.0,46.0,29.99,NNE,32,3.0,9.0,65,0.00,,,0.02,,2013-05-04 00:23:00,
2013-05-03 19:32:00,57.0,46.0,29.99,SSW,211,2.0,8.0,67,0.00,,,0.02,,2013-05-04 00:32:00,
2013-05-03 19:41:00,57.0,46.0,29.99,SSW,211,2.0,8.0,67,0.00,,,0.02,,2013-05-04 00:41:00,
2013-05-03 19:52:00,56.0,46.0,30.00,NNW,347,2.0,6.0,68,0.00,,,0.02,,2013-05-04 00:52:00,
2013-05-03 20:01:00,55.0,45.0,30.00,North,354,1.0,4.0,69,0.00,,,0.02,,2013-05-04 01:01:00,
2013-05-03 20:11:00,55.0,45.0,30.00,North,354,1.0,4.0,69,0.00,,,0.02,,2013-05-04 01:11:00,
2013-05-03 20:21:00,55.0,45.0,30.01,NW,325,1.0,5.0,70,0.00,,,0.02,,2013-05-04 01:21:00,
2013-05-03 20:32:00,54.0,45.0,30.02,NNW,346,0.0,3.0,71,0.00,,,0.02,,2013-05-04 01:32:00,
2013-05-03 20:41:00,54.0,45.0,30.02,NNW,346,0.0,3.0,71,0.00,,,0.02,,2013-05-04 01:41:00,
2013-05-03 20:52:00,53.0,45.0,30.03,North,356,0.0,1.0,74,0.00,,,0.02,,2013-05-04 01:52:00,
2013-05-03 21:02:00,53.0,45.0,30.03,North,351,0.0,2.0,75,0.00,,,0.02,,2013-05-04 02:02:00,
2013-05-03 21:11:00,53.0,45.0,30.03,North,351,0.0,2.0,75,0.00,,,0.02,,2013-05-04 02:11:00,
2013-05-03 21:21:00,52.0,45.0,30.03,North,358,0.0,1.0,77,0.00,,,0.02,,2013-05-04 02:21:00,
2013-05-03 21:32:00,51.0,45.0,30.04,North,351,0.0,0.0,79,0.00,,,0.02,,2013-05-04 02:32:00,
2013-05-03 21:41:00,51.0,45.0,30.04,North,351,0.0,0.0,79,0.00,,,0.02,,2013-05-04 02:41:00,
2013-05-03 21:52:00,50.0,45.0,30.04,North,349,0.0,1.0,82,0.00,,,0.02,,2013-05-04 02:52:00,
2013-05-03 22:02:00,51.0,45.0,30.05,NNW,342,0.0,1.0,81,0.00,,,0.02,,2013-05-04 03:02:00,
2013-05-03 22:11:00,51.0,45.0,30.05,NNW,342,0.0,1.0,81,0.00,,,0.02,,2013-05-04 03:11:00,
2013-05-03 22:22:00,51.0,45.0,30.05,NNW,346,0.0,1.0,80,0.00,,,0.02,,2013-05-04 03:22:00,
2013-05-03 22:33:00,51.0,45.0,30.05,NNW,345,0.0,1.0,81,0.00,,,0.02,,2013-05-04 03:33:00,
2013-05-03 22:43:00,51.0,45.0,30.05,NNW,345,0.0,1.0,81,0.00,,,0.02,,2013-05-04 03:43:00,
2013-05-03 22:52:00,50.0,45.0,30.05,NNW,345,0.0,0.0,83,0.00,,,0.02,,2013-05-04 03:52:00,
2013-05-03 23:02:00,49.0,45.0,30.04,NNW,345,0.0,0.0,85,0.00,,,0.02,,2013-05-04 04:02:00,
2013-05-03 23:12:00,49.0,45.0,30.04,NNW,345,0.0,0.0,85,0.00,,,0.02,,2013-05-04 04:12:00,
2013-05-03 23:22:00,48.0,45.0,30.04,NNW,346,0.0,0.0,88,0.00,,,0.02,,2013-05-04 04:22:00,
2013-05-03 23:33:00,47.0,44.0,30.04,NNW,345,0.0,0.0,90,0.00,,,0.02,,2013-05-04 04:33:00,
2013-05-03 23:42:00,47.0,44.0,30.04,NNW,345,0.0,0.0,90,0.00,,,0.02,,2013-05-04 04:42:00,
2013-05-03 23:52:00,46.0,44.0,30.04,NNW,345,0.0,0.0,91,0.00,,,0.02,,2013-05-04 04:52:00,